Temperature
19 19 19 19 19 19 19 19 19 18 18 18 18 18 18 18 18 18 18 17 17 17 17 17 17 17 17 17 17 17 17 17 17 17 17 17 16 16 16 16 16 16 16
19 19 19 19 19 19 19 19 19 18 18 18 18 18 18 18 18 18 17 17 17 17 17 17 17 17 17 17 17 17 17 17 17 17 17 16 16 16 16 16 16 16 16
19 19 19 19 19 19 19 19 19 18 18 18 18 18 18 18 17 17 17 17 17 17 17 17 17 16 16 16 16 16 16 16 16 16 16 16 16 16 16 16 15 16 15
19 19 19 19 19 19 19 18 18 18 18 18 18 18 17 17 17 17 17 17 17 17 16 16 16 16 16 16 16 16 16 16 16 16 16 16 16 15 15 15 15 15 15
19 19 19 19 19 18 18 18 18 18 18 18 18 17 17 17 17 17 17 17 17 16 16 16 16 16 16 16 16 16 16 16 16 16 16 16 16 15 15 15 15 15 15
19 19 19 18 18 18 18 18 18 18 18 18 17 17 17 17 17 17 17 16 16 16 16 16 16 16 16 16 16 16 15 15 15 15 16 15 15 15 15 15 15 15 15
18 18 18 18 18 18 18 18 18 18 18 17 17 17 17 17 17 17 17 16 16 16 15 15 16 16 15 15 15 15 15 15 15 15 15 15 14 14 14 14 14 14 14
18 18 18 18 18 18 18 18 18 18 17 17 17 17 17 17 17 16 16 16 16 15 15 15 15 15 15 15 15 15 15 15 15 14 14 14 14 14 14 14 13 13 13
18 18 18 18 18 18 18 17 17 17 17 17 17 17 16 16 16 16 16 16 15 15 15 15 15 15 15 15 15 14 14 14 14 14 14 14 14 14 14 13 13 13 14
17 17 17 17 17 17 17 17 17 17 16 16 16 16 16 16 16 16 16 15 15 15 15 15 15 15 15 15 14 14 14 14 14 13 14 13 13 13 13 13 13 13 13
16 16 16 16 16 16 16 17 16 16 16 16 16 16 16 16 16 16 15 15 15 15 15 15 15 15 14 14 14 14 14 14 13 13 13 13 13 13 13 12 12 12 12
16 16 16 16 16 16 16 16 16 16 15 15 15 15 15 15 15 15 15 15 14 14 14 14 14 14 14 14 14 14 14 13 13 13 13 13 13 13 12 12 12 12 12
15 15 15 15 15 15 15 15 15 15 15 15 15 15 15 15 15 14 14 14 14 14 14 14 14 14 14 13 13 13 13 13 13 13 13 13 13 12 12 12 12 12 11
15 15 15 14 14 14 14 15 15 15 15 15 15 15 15 14 14 14 14 14 14 13 13 13 13 13 13 13 13 13 13 12 12 13 12 12 12 12 11 11 11 11 11
14 14 14 14 14 14 14 14 14 14 14 14 14 14 14 14 14 14 14 13 13 13 13 13 13 13 12 12 12 12 12 12 12 12 12 12 12 12 11 11 11 11 11
14 14 14 14 14 14 14 14 14 14 14 14 14 14 13 14 14 13 13 13 13 13 12 12 12 12 12 12 12 12 12 12 12 11 11 11 11 11 11 11 11 11 11
13 13 14 14 14 14 14 14 14 14 13 13 13 13 13 13 13 13 13 13 12 12 12 12 12 12 11 11 11 11 11 11 11 11 11 11 11 11 11 11 10 10 10
13 13 13 13 13 13 13 13 13 13 13 13 13 13 12 12 12 12 12 12 11 11 11 11 11 11 11 11 11 11 10 10 10 10 10 10 10 10 10 10 10 10 10
12 13 13 13 13 13 13 13 13 13 13 13 12 12 12 12 12 11 11 11 11 11 11 10 10 10 10 10 10 10 10 10 10 9 10 10 10 10 10 10 10 9 9
12 12 12 12 12 12 12 12 12 12 12 12 12 12 11 11 11 11 11 10 10 10 10 10 10 10 10 9 9 9 9 9 9 9 9 9 9 9 9 9 9 9 9
12 12 12 12 12 12 12 12 12 12 11 11 11 11 11 11 10 10 10 10 10 10 10 9 9 9 9 9 9 9 9 9 9 9 9 8 8 8 8 8 9 9 8
11 12 11 11 11 11 11 11 11 11 11 11 11 11 10 10 10 10 10 10 10 9 9 9 9 9 8 8 8 8 8 8 8 8 8 8 8 8 8 8 8 8 8
11 11 11 11 11 11 11 11 11 11 11 10 10 10 10 10 10 10 9 9 9 9 9 9 9 8 8 8 8 8 8 8 8 7 7 7 7 7 7 7 7 7 8
10 11 11 11 11 11 10 10 10 10 10 10 10 10 9 9 9 9 9 9 9 9 8 8 8 8 8 8 7 7 7 7 7 7 7 7 7 7 7 7 7 7 7
10 10 10 10 10 10 10 10 10 10 10 10 9 9 9 9 9 9 9 9 9 8 8 8 8 8 8 7 7 7 7 7 7 7 7 6 6 6 6 6 7 7 7
10 10 10 10 10 10 10 10 10 9 9 9 9 9 9 9 9 9 8 8 8 8 8 8 7 7 7 7 7 7 7 7 7 7 7 6 6 6 6 6 6 6 6
Wind_Speed
11 11 11 11 12 12 11 11 10 9 9 9 9 8 8 8 7 7 7 7 7 7 7 7 6 6 5 5 5 5 5 6 6 5 4 3 3 4 2 5 5 6 5
10 10 10 10 11 11 11 11 10 10 10 10 9 9 9 9 8 8 9 8 8 8 7 7 7 6 6 6 5 6 5 5 7 6 5 4 4 4 3 5 5 5 4
8 9 9 10 11 11 11 10 10 10 10 9 9 9 9 9 8 8 8 8 8 8 8 8 8 7 7 5 6 6 6 6 5 6 5 3 4 3 4 5 5 4 5
7 8 9 9 10 10 10 10 10 10 10 10 9 9 9 9 8 8 8 8 8 8 8 8 8 7 7 6 6 6 6 6 5 6 5 5 4 3 4 4 4 3 4
6 7 8 8 8 9 9 10 10 10 10 9 9 9 9 8 8 8 8 8 7 7 7 7 7 5 4 5 5 4 5 6 6 6 6 5 4 3 4 4 4 4 2
4 5 5 6 7 8 8 9 9 9 9 9 10 10 9 8 5 6 7 7 6 7 7 7 6 6 5 4 4 4 5 6 6 6 6 5 5 5 4 5 5 4 4
4 3 3 4 5 6 7 7 8 8 8 9 9 9 9 8 6 7 7 7 7 6 6 6 6 4 5 5 5 6 5 5 6 7 7 6 5 4 4 6 5 6 5
4 4 4 4 4 4 5 6 6 7 7 8 9 9 9 8 9 9 8 8 7 6 7 7 6 6 5 5 5 5 5 5 6 7 6 6 5 3 4 6 6 6 6
4 4 4 4 4 4 5 5 5 5 6 7 7 8 9 8 9 10 8 7 6 7 7 7 7 7 3 4 6 6 5 5 4 3 2 2 2 3 5 5 5 6 6
4 4 4 4 5 5 5 5 5 5 6 6 6 7 8 8 9 10 10 7 7 7 6 7 7 6 5 5 6 6 6 5 4 4 4 6 6 6 7 6 6 6 6
4 4 4 4 5 5 5 5 5 6 5 5 6 6 6 6 8 11 10 7 7 7 6 6 4 7 6 6 7 6 5 4 5 5 5 5 5 5 5 5 5 6 7
4 4 5 5 6 5 5 5 6 6 6 6 5 5 5 5 6 8 9 9 7 7 7 5 2 5 5 6 6 3 4 6 6 5 5 5 5 4 4 4 4 6 6
5 5 5 5 5 5 6 6 6 6 6 6 5 5 4 4 5 8 9 8 8 6 5 1 3 5 5 5 7 7 6 6 6 6 5 5 4 4 4 4 5 6 8
6 6 5 5 6 5 5 6 6 6 6 6 5 5 4 4 4 4 4 4 6 5 3 3 5 7 7 5 6 6 6 5 5 5 5 5 5 4 5 4 5 5 5
7 7 7 6 6 5 6 5 6 5 5 5 5 5 5 6 3 2 3 4 4 3 3 4 4 4 5 5 4 5 5 5 5 5 5 5 5 5 4 4 4 5 5
7 7 7 6 5 6 6 5 2 3 1 2 4 6 5 2 3 4 3 2 4 6 5 5 5 5 5 5 5 5 5 4 4 5 5 5 5 5 5 4 4 5 5
7 7 7 6 6 6 6 6 4 3 2 2 2 3 3 3 4 5 5 4 5 7 5 5 4 4 4 4 4 5 5 4 4 5 5 5 5 5 5 5 4 5 6
8 7 7 6 6 6 6 6 5 5 4 3 1 2 3 4 5 5 6 4 3 5 4 3 3 3 3 3 3 4 3 3 4 5 5 5 5 5 5 5 5 6 6
8 7 6 6 6 5 5 5 5 5 4 3 2 2 4 5 6 6 7 4 4 3 3 3 3 3 3 3 3 4 4 4 4 4 4 4 5 5 5 6 5 5 6
6 6 6 5 5 5 4 4 4 4 4 3 3 3 3 3 3 3 3 3 3 3 3 3 3 3 3 3 4 4 4 4 4 5 4 4 4 5 5 6 5 5 6
6 5 5 5 5 4 4 4 3 3 3 3 3 3 3 3 3 3 3 3 3 3 3 3 3 4 4 4 4 4 5 4 4 4 4 4 4 5 5 5 5 5 5
5 5 4 4 3 2 3 3 2 2 2 2 2 3 5 3 3 3 3 3 3 3 3 4 4 3 3 3 3 4 4 4 4 4 4 5 5 5 5 5 5 5 5
5 4 3 3 2 2 3 2 3 3 2 3 3 3 3 3 3 3 3 3 3 3 4 4 4 4 3 3 3 4 4 4 4 4 5 5 5 5 5 5 6 6 6
4 4 4 3 3 3 3 2 2 2 1 2 2 2 3 3 3 3 3 3 3 3 4 3 3 4 3 3 3 4 3 3 5 5 7 6 7 6 6 6 6 6 6
4 3 3 3 3 3 3 3 2 2 2 3 3 3 3 3 4 3 3 3 3 3 4 3 3 3 4 5 5 3 2 1 4 6 6 7 7 7 7 7 6 6 6
4 3 3 3 3 3 3 3 3 3 3 3 3 3 3 4 4 3 3 3 3 3 4 3 4 4 5 5 4 0 2 2 4 6 7 7 7 7 7 7 7 7 7
Wind_Direction
209 210 213 212 212 215 220 225 226 229 228 229 230 230 231 231 230 233 246 244 246 247 247 244 245 258 260 263 260 259 256 258 267 274 272 271 272 277 261 259 253 245 218
208 208 212 214 214 215 217 220 220 223 226 226 229 231 235 234 232 234 241 242 244 246 244 242 242 239 241 257 264 263 263 262 260 270 274 269 257 260 259 265 265 261 263
205 210 215 216 216 218 219 218 217 219 223 226 226 229 232 234 234 236 241 244 247 248 245 242 241 243 246 249 255 260 261 258 256 262 266 271 264 262 258 253 256 260 264
205 213 218 222 223 222 221 221 221 220 221 224 226 227 229 233 236 238 239 242 245 249 249 245 242 242 244 244 245 250 259 265 257 258 261 260 256 252 257 262 256 246 271
204 217 223 227 226 225 224 223 222 222 222 221 223 225 229 230 233 234 237 237 240 246 247 246 243 237 255 258 262 255 255 258 257 256 258 260 261 264 264 270 271 271 250
203 219 225 229 226 223 221 221 221 221 223 221 223 225 226 229 202 207 232 241 241 245 250 250 246 224 217 228 256 272 277 258 262 264 261 264 270 268 274 276 277 277 275
199 218 223 225 222 220 220 219 222 223 222 223 224 225 227 221 192 194 212 234 240 243 247 249 253 236 211 228 217 219 240 253 259 267 271 272 272 276 278 272 273 280 286
203 220 224 224 227 229 224 222 224 225 226 227 227 227 229 218 190 195 207 224 234 238 244 243 242 242 236 233 241 237 237 239 242 247 258 267 272 279 265 264 268 261 258
220 227 229 229 234 231 225 225 226 229 231 232 232 231 230 221 194 194 206 223 227 236 240 238 234 233 197 211 231 235 235 237 221 201 237 253 302 279 276 269 264 265 267
242 241 239 239 238 235 231 227 228 230 233 237 236 234 234 229 195 191 205 226 225 231 232 231 219 217 190 203 227 231 233 237 240 217 219 225 231 228 225 247 264 267 271
254 249 247 243 243 244 242 240 234 232 232 235 238 237 232 224 197 194 207 229 236 237 238 236 218 170 182 208 236 238 238 251 248 244 240 239 236 237 235 237 259 272 274
261 253 251 248 250 245 238 240 237 233 231 228 224 231 228 211 201 193 200 223 257 253 251 249 216 160 191 219 232 220 217 242 245 243 248 249 248 248 248 252 256 265 273
259 254 254 252 248 246 238 237 238 232 236 234 229 232 230 216 198 188 198 210 227 246 258 240 166 180 198 218 206 202 216 236 243 245 248 253 257 260 259 248 244 246 252
260 257 252 248 245 238 237 238 241 243 243 241 239 239 238 227 219 208 212 209 202 218 232 197 187 204 214 212 205 213 230 241 245 249 255 259 261 254 252 259 261 259 260
265 261 257 252 248 246 246 252 249 253 257 249 245 241 238 238 213 180 224 228 226 217 212 225 225 221 224 225 230 231 230 226 236 247 253 254 258 258 258 259 262 267 264
264 264 260 256 248 245 244 252 261 257 217 227 263 262 253 234 158 158 177 185 178 183 211 226 227 229 233 234 238 238 238 236 240 248 255 257 256 258 259 259 257 261 266
266 269 269 265 255 247 244 243 246 238 195 204 232 244 234 199 171 165 163 168 185 192 219 232 231 235 241 243 243 244 242 242 250 254 254 258 259 260 262 265 265 266 267
264 260 257 261 260 255 250 250 248 246 242 229 177 146 164 170 168 165 163 169 205 216 234 237 232 229 233 241 248 249 246 244 250 257 259 263 263 265 267 267 264 267 270
263 264 260 263 263 258 253 249 249 248 246 243 222 155 149 148 156 172 184 214 218 222 229 226 226 228 228 234 241 245 245 249 258 264 267 275 276 272 269 270 269 261 264
256 252 256 262 259 253 249 247 247 243 236 231 226 205 172 176 181 182 201 228 227 218 217 217 220 227 228 232 235 239 243 244 249 257 264 269 276 280 278 276 276 273 267
265 254 225 248 252 250 248 246 245 243 233 219 207 168 185 205 198 194 205 222 232 225 221 219 215 216 223 230 236 242 251 253 254 262 267 269 274 278 279 279 279 276 275
266 260 253 255 254 247 250 251 243 235 225 223 223 178 173 203 206 207 210 220 230 229 219 217 217 220 230 233 234 242 249 258 265 269 272 273 272 272 276 278 281 282 276
263 256 245 246 240 222 227 240 243 239 230 225 223 215 207 210 217 222 221 221 228 229 224 224 228 226 227 235 241 242 251 255 261 269 273 272 271 271 273 277 278 279 279
252 248 239 232 233 239 237 236 239 244 236 244 248 243 226 212 223 224 226 227 226 230 226 227 233 232 234 246 247 243 247 264 268 262 264 264 265 268 271 274 274 275 274
249 247 243 240 236 232 230 224 220 228 237 241 241 237 232 229 228 229 229 234 237 237 237 238 241 243 243 249 256 258 23 311 275 268 258 257 256 259 263 267 267 266 263
240 235 239 243 246 244 230 219 221 232 243 242 234 230 233 234 233 228 228 235 245 248 249 248 248 253 253 247 243 181 142 219 254 267 261 252 252 253 258 258 261 261 261
Height
1526 1528 1529 1531 1533 1535 1537 1539 1541 1542 1543 1544 1545 1546 1547 1547 1547 1547 1548 1548 1548 1548 1547 1548 1547 1547 1547 1547 1547 1547 1546 1546 1545 1544 1544 1542 1541 1540 1539 1539 1539 1537 1537
1522 1524 1526 1527 1529 1531 1533 1534 1536 1537 1539 1540 1541 1542 1543 1543 1544 1544 1544 1545 1545 1544 1544 1544 1544 1544 1543 1543 1543 1543 1543 1542 1542 1541 1540 1539 1538 1537 1536 1535 1535 1535 1534
1519 1520 1522 1524 1525 1527 1529 1530 1532 1533 1534 1536 1537 1538 1538 1539 1539 1540 1540 1540 1541 1541 1540 1540 1540 1540 1540 1540 1539 1540 1540 1539 1538 1538 1537 1536 1535 1534 1533 1532 1532 1530 1530
1516 1517 1519 1520 1521 1523 1525 1526 1527 1528 1530 1531 1532 1533 1534 1535 1535 1536 1536 1536 1536 1536 1536 1536 1536 1536 1535 1535 1535 1535 1535 1535 1535 1535 1534 1533 1532 1531 1530 1530 1529 1528 1527
1513 1514 1515 1516 1518 1519 1520 1521 1523 1524 1525 1526 1527 1528 1529 1530 1531 1531 1532 1532 1532 1532 1532 1532 1532 1531 1531 1531 1532 1532 1532 1532 1532 1531 1531 1530 1530 1528 1528 1527 1526 1525 1524
1509 1510 1511 1512 1513 1514 1515 1516 1518 1519 1520 1521 1522 1523 1524 1525 1526 1526 1527 1527 1528 1528 1527 1527 1527 1526 1527 1527 1527 1527 1528 1528 1528 1528 1528 1527 1526 1525 1524 1524 1523 1522 1521
1506 1507 1508 1508 1509 1510 1511 1512 1513 1514 1515 1516 1517 1518 1519 1520 1520 1521 1522 1523 1523 1523 1523 1523 1524 1524 1523 1523 1523 1523 1523 1523 1524 1524 1524 1523 1522 1521 1521 1520 1519 1518 1517
1503 1503 1504 1504 1505 1505 1506 1507 1508 1509 1510 1511 1512 1513 1514 1514 1515 1516 1517 1518 1519 1519 1519 1519 1519 1520 1520 1520 1521 1520 1520 1519 1519 1520 1519 1518 1518 1517 1516 1516 1515 1514 1513
1501 1501 1501 1501 1501 1502 1502 1502 1503 1504 1505 1506 1507 1507 1508 1509 1510 1511 1512 1513 1514 1514 1514 1515 1515 1516 1515 1516 1516 1516 1516 1516 1516 1515 1514 1514 1513 1513 1513 1512 1512 1511 1510
1497 1497 1498 1497 1498 1498 1499 1499 1500 1500 1500 1501 1502 1502 1503 1504 1505 1506 1507 1508 1509 1510 1510 1511 1511 1511 1511 1511 1512 1512 1512 1512 1512 1511 1510 1510 1509 1509 1508 1508 1508 1508 1507
1494 1494 1494 1494 1494 1495 1495 1496 1496 1496 1496 1496 1497 1497 1498 1499 1499 1500 1502 1504 1505 1506 1506 1507 1507 1507 1507 1507 1507 1508 1508 1508 1508 1507 1507 1507 1506 1506 1505 1504 1503 1503 1503
1491 1491 1491 1491 1491 1492 1491 1492 1492 1492 1492 1492 1492 1492 1493 1494 1494 1495 1497 1499 1501 1501 1502 1502 1502 1502 1502 1502 1503 1503 1503 1504 1504 1504 1504 1504 1503 1502 1501 1500 1498 1497 1497
1487 1487 1487 1487 1487 1487 1487 1488 1488 1488 1489 1489 1488 1489 1489 1490 1491 1491 1492 1493 1495 1496 1497 1497 1497 1497 1497 1497 1497 1498 1499 1499 1500 1500 1500 1499 1499 1497 1496 1495 1494 1493 1492
1483 1483 1483 1483 1483 1483 1483 1484 1484 1484 1484 1485 1484 1484 1485 1486 1487 1487 1488 1489 1490 1490 1491 1491 1491 1492 1492 1493 1493 1494 1494 1495 1495 1496 1495 1495 1494 1493 1492 1492 1491 1490 1489
1479 1478 1478 1479 1479 1479 1479 1479 1479 1480 1480 1480 1480 1480 1480 1481 1482 1482 1483 1484 1485 1486 1486 1486 1487 1487 1488 1489 1489 1490 1490 1490 1491 1491 1491 1490 1490 1489 1488 1487 1486 1486 1485
1474 1474 1474 1474 1475 1475 1475 1474 1474 1474 1474 1475 1475 1476 1476 1477 1477 1478 1479 1479 1479 1481 1482 1482 1482 1483 1484 1485 1485 1486 1486 1486 1487 1487 1486 1486 1485 1485 1484 1483 1482 1482 1481
1470 1470 1470 1470 1470 1470 1470 1470 1470 1470 1470 1470 1471 1471 1472 1472 1473 1474 1474 1475 1476 1476 1477 1478 1479 1479 1480 1481 1481 1482 1482 1482 1482 1483 1482 1482 1481 1481 1480 1479 1478 1477 1477
1466 1466 1465 1465 1466 1466 1466 1465 1465 1465 1466 1466 1466 1467 1467 1468 1469 1470 1471 1471 1472 1473 1474 1474 1475 1475 1476 1476 1477 1478 1478 1478 1478 1479 1479 1478 1478 1477 1476 1475 1474 1473 1472
1461 1461 1461 1461 1461 1461 1461 1461 1461 1461 1461 1462 1462 1463 1463 1464 1464 1466 1467 1468 1469 1469 1470 1471 1471 1472 1472 1472 1473 1474 1474 1475 1475 1475 1474 1474 1473 1473 1472 1471 1470 1468 1468
1457 1456 1456 1457 1457 1457 1457 1457 1457 1457 1457 1457 1458 1459 1459 1460 1461 1462 1463 1464 1465 1466 1467 1467 1467 1468 1468 1469 1469 1470 1470 1470 1470 1471 1470 1470 1469 1468 1467 1466 1465 1464 1463
1453 1453 1452 1453 1453 1453 1453 1453 1453 1454 1454 1454 1454 1455 1456 1456 1457 1458 1459 1461 1462 1462 1463 1463 1463 1464 1464 1465 1466 1466 1466 1466 1466 1466 1466 1465 1465 1464 1463 1462 1461 1460 1459
1449 1449 1449 1449 1449 1449 1449 1449 1450 1451 1451 1451 1451 1452 1453 1454 1454 1455 1456 1457 1458 1458 1459 1460 1460 1460 1460 1461 1461 1462 1462 1462 1462 1461 1461 1461 1460 1460 1459 1458 1457 1456 1455
1446 1446 1446 1446 1446 1446 1446 1446 1447 1447 1447 1448 1448 1449 1450 1450 1451 1452 1453 1454 1455 1455 1455 1456 1456 1457 1457 1457 1457 1457 1458 1457 1457 1456 1456 1456 1455 1455 1454 1454 1453 1451 1451
1443 1443 1443 1443 1443 1443 1444 1443 1444 1444 1445 1446 1446 1446 1447 1447 1448 1449 1450 1451 1451 1451 1451 1452 1452 1452 1452 1453 1453 1453 1453 1452 1452 1451 1451 1451 1450 1450 1450 1449 1448 1447 1446
1440 1440 1440 1440 1441 1441 1440 1441 1441 1442 1442 1443 1443 1444 1444 1445 1446 1446 1447 1447 1447 1447 1447 1447 1448 1448 1448 1448 1448 1448 1447 1446 1446 1446 1445 1445 1445 1445 1444 1444 1443 1443 1442
1438 1438 1438 1438 1438 1438 1438 1438 1439 1439 1439 1440 1441 1441 1442 1442 1442 1442 1443 1443 1444 1444 1443 1443 1443 1443 1442 1442 1442 1441 1441 1440 1440 1440 1440 1439 1439 1439 1439 1439 1438 1438 1438